This is the latest recevied weather packets stored in our database for station/object EA3DJ-10. If no packets are shown the sender has not sent any weather packets the latest 10 day(s).
| Time | Temp. | Humidity | Pressure | Rain* | Wind** | Luminosity | Snow |
|---|---|---|---|---|---|---|---|
| 1788061166 | 27.78° C | 44% | 1018.5 hPa | - | - | - | - |
| 1788059966 | 27.78° C | 43% | 1018.5 hPa | - | - | - | - |
| 1788058766 | 28.33° C | 44% | 1018.5 hPa | - | - | - | - |
| 1788057566 | 28.33° C | 43% | 1018.5 hPa | - | - | - | - |
| 1788056366 | 28.33° C | 43% | 1018.6 hPa | - | - | - | - |
| 1788055165 | 28.33° C | 43% | 1018.8 hPa | - | - | - | - |
| 1788053965 | 28.89° C | 41% | 1018.8 hPa | - | - | - | - |
| 1788052765 | 31.67° C | 34% | 1018.7 hPa | - | - | - | - |
| 1788051564 | 30.56° C | 35% | 1018.7 hPa | - | - | - | - |
| 1788050358 | 29.44° C | 42% | 1018.9 hPa | - | - | - | - |
| 1788049158 | 28.33° C | 37% | 1019 hPa | - | - | - | - |
| 1788047957 | 28.89° C | 43% | 1019 hPa | - | - | - | - |
| 1788046771 | 26.67° C | 37% | 1019.4 hPa | - | - | - | - |
| 1788045557 | 26.11° C | 43% | 1019.4 hPa | - | - | - | - |
| 1788044357 | 27.78° C | 45% | 1019.4 hPa | - | - | - | - |
| 1788043157 | 27.78° C | 44% | 1019.3 hPa | - | - | - | - |
| 1788041957 | 27.78° C | 45% | 1019.1 hPa | - | - | - | - |
| 1788040757 | 27.78° C | 45% | 1019 hPa | - | - | - | - |
| 1788039557 | 27.78° C | 44% | 1019.1 hPa | - | - | - | - |
| 1788038356 | 27.22° C | 44% | 1019 hPa | - | - | - | - |
| 1788037156 | 27.22° C | 44% | 1019 hPa | - | - | - | - |
| 1788035956 | 27.22° C | 43% | 1018.9 hPa | - | - | - | - |
| 1788034756 | 27.22° C | 43% | 1018.8 hPa | - | - | - | - |
| 1788033556 | 27.22° C | 43% | 1018.5 hPa | - | - | - | - |
| 1788032356 | 27.22° C | 43% | 1018.3 hPa | - | - | - | - |
* Rain since midnight (hover to see other rain measurements)
** Current wind speed in m/s (hover to see current wind gust speed)